IRIDIUM 33 DEB, 34870

Orbit data source: Space-Track

IRIDIUM 33 DEB, 34870 is space debris in LEO originally from a launch on Sun, 14 Sep 1997 UTC launched from the Tyuratam Missile And Space Complex (TTMTR). The debris from Iridium 33, an American commercial communications satellite, has been tracked extensively since its accidental collision with the defunct Russian satellite Cosmos 2251 in 2009. This event, occurring at high speed in low Earth orbit (LEO), generated thousands of pieces of space debris, significantly increasing the risk of further collisions. The Iridium 33 debris cloud has impacted space traffic management and orbital debris mitigation strategies, making it a subject of ongoing study in space situational awareness.

Loading next visibility...
Identifier
34870, 1997-051MQ
Orbit
LEO
Country
Flag of USUS
Related business
Manufacturer
Unknown
Mission
Spacecraft
Bus & Motor
Unknown
Mass
Unknown
Launch date (UTC)
1997-09-14 (28 years ago)
Launch vehicle
Unknown
Launch site
Tyuratam Missile And Space Complex (TTMTR)
Object type
Payload
Rocket body
Debris
Shape & HBR
Unknown shape, 0.1 m
Radar Cross Section
Small (<0.1 m²)

Expand to show TLE details & history
Last TLE update: 2 days ago

TLE from 2 days ago
0 IRIDIUM 33 DEB
1 34870U 97051MQ  26061.88326943  .00009814  00000-0  13451-2 0  9990
2 34870  86.3060 277.3223 0014730 275.7378 144.8425 14.78283800900948
Epoch: 2026-03-02T21:11Z
TLE epoch observation values (Epoch: 2026-03-02T21:11:54.478Z)
Latitude
60.56157°
Longitude
165.20834°
Altitude
653.623 km
Speed
7.532 km/s
True Right ascension
18h 55m 25s
True Declination
60° 24' 43"
Sunlit
Object was in daylight at epoch
Visualization orbit readout
Latitude
Unknown
Longitude
Unknown
Altitude
Unknown
Speed
Unknown
Apparent Right ascension
Unknown
Apparent Declination
Unknown
Sunlit
N/A
Visualization observer readout
Local Sidereal Time
03:43:28
Azimuth
Unknown
Elevation
Unknown
Doppler factor
Unknown
Orbital elements
Apogee altitude
641.976 km
Perigee altitude
621.326 km
Semi-major axis
7,009.788 km
Eccentricity
0.00147
Inclination
86.306°
RAAN
277.3223°
Arg. of periapsis
275.7378°
True anomaly
144.93955°
Mean anomaly
144.8425°
Eccentric anomaly
144.89104°
Mean motion
3.69816 °/min
Orbital period
97.35 mins
BSTAR
0.0013451
Loading maneuver chart data...
Computing Atmospheric mass density...
Loading historical data...
Loading historical data...
Loading historical data...
Loading historical data...
Loading historical data...
Loading historical data...
Loading historical data...

Documentation

Showing up to 5 results
|